Theta_e
315 315 315 315 315 315 314 314 314 314 314 314 314 314 314 313 313 313 313 313 313 313 313 312 312 312 312 312 312 312 312 312 313 313 314 314 314 314 315 315 315 315
315 314 314 314 315 314 314 314 314 314 314 314 314 314 314 313 313 313 313 313 313 313 313 313 313 313 312 312 312 312 312 311 311 311 312 312 312 312 312 312 312 312
314 314 314 314 314 314 314 314 314 314 314 314 314 313 313 313 313 313 313 313 313 313 313 313 313 313 313 313 312 312 312 312 311 311 311 311 311 311 311 311 311 311
314 314 314 314 314 314 314 314 314 314 314 313 313 313 313 313 312 313 312 312 312 312 312 312 312 312 312 312 312 312 312 311 311 311 311 311 311 311 311 310 310 310
314 314 314 314 314 314 314 314 313 313 313 312 312 312 312 312 312 312 311 311 311 311 311 311 311 310 310 310 310 310 310 310 310 310 310 310 310 310 310 309 309 310
314 314 314 314 314 313 313 313 312 312 312 312 311 311 311 311 310 310 310 309 309 309 308 308 307 307 307 307 307 306 306 306 306 306 306 306 306 306 306 306 306 307
313 314 313 313 313 313 312 312 312 311 311 311 310 310 309 308 308 307 307 306 306 305 305 304 304 304 303 303 303 302 302 302 302 302 302 302 302 301 301 301 302 302
313 313 313 312 312 312 311 311 311 310 309 308 308 307 306 305 305 304 304 303 303 302 302 301 301 301 301 300 300 300 300 299 299 299 299 299 299 298 298 298 298 298
313 312 312 311 311 311 310 309 308 307 306 305 304 304 303 303 302 302 301 301 300 300 299 299 299 298 298 298 298 298 298 297 297 297 297 297 297 297 297 297 297 296
312 311 311 310 309 308 308 306 305 304 303 303 303 303 302 302 301 300 299 299 298 298 298 298 297 297 297 297 297 297 297 297 297 297 297 297 296 296 296 296 296 296
311 310 309 308 307 306 305 304 303 303 303 303 302 302 301 300 299 298 298 298 297 297 297 297 297 297 297 297 297 297 297 297 296 296 296 296 296 296 296 296 296 296
309 308 307 306 305 304 304 303 303 303 303 302 301 300 299 298 298 297 297 297 297 297 297 296 296 296 296 296 296 296 296 296 296 296 296 296 296 296 296 296 296 296
307 306 305 304 303 303 303 303 303 302 301 300 299 298 298 297 297 297 297 297 297 296 296 296 296 296 296 296 296 296 296 295 295 295 295 295 295 295 295 295 295 295
305 304 303 303 303 303 302 301 300 299 298 298 298 297 297 297 297 297 297 297 297 296 296 296 296 296 296 296 296 295 295 295 295 295 295 295 295 295 295 295 295 295
303 303 303 302 302 301 300 299 298 297 298 297 297 297 297 297 297 297 297 297 296 296 296 296 296 295 295 295 295 295 295 295 295 294 294 294 294 295 294 294 294 294
302 302 302 301 300 299 298 298 297 297 297 297 297 297 297 297 296 296 296 296 296 296 295 295 295 295 295 294 294 294 294 294 294 294 294 294 293 293 293 293 293 293
301 301 301 299 298 298 297 297 297 297 297 297 297 296 296 296 296 296 296 295 295 295 295 295 294 294 294 294 293 293 293 293 293 292 292 292 292 292 292 292 292 292
301 300 299 298 298 297 297 297 297 297 297 296 296 296 296 295 295 295 295 295 295 294 294 294 293 293 293 293 292 292 292 292 292 292 292 292 292 291 292 292 292 292
299 298 298 297 297 297 297 297 297 296 296 296 296 295 295 295 295 295 294 294 294 294 293 293 293 292 292 291 291 291 291 291 292 292 292 292 292 292 292 292 292 291
298 297 297 297 297 297 297 296 296 296 296 295 295 295 295 295 294 294 294 294 293 293 293 292 292 291 291 291 291 291 291 292 292 292 291 291 291 291 291 291 291 291
298 297 297 297 297 297 296 296 295 295 295 295 294 294 294 294 294 293 293 293 292 292 292 292 291 291 291 291 291 291 291 291 291 291 291 291 291 291 291 291 290 290
298 297 297 297 296 296 295 295 295 294 294 294 294 294 293 293 293 293 292 292 292 292 291 291 291 291 291 291 291 291 291 291 291 291 290 290 291 291 291 290 290 290
297 297 297 296 295 295 295 294 294 294 294 294 293 293 293 292 292 292 292 292 291 291 291 291 291 291 291 291 291 291 290 290 290 290 290 290 290 290 290 290 290 290
297 296 296 295 295 294 294 294 294 293 293 293 293 292 292 292 292 291 291 291 291 291 291 291 291 291 291 291 291 290 290 290 290 290 290 290 290 290 290 290 290 290
296 295 295 294 294 294 293 293 293 292 292 292 292 291 291 291 291 291 291 291 291 291 291 291 291 292 291 290 290 290 289 289 289 289 289 290 290 290 290 290 290 290
295 294 294 294 293 293 293 292 292 291 291 291 291 291 291 290 290 291 291 291 291 291 291 291 291 291 291 290 289 289 289 289 289 289 289 289 289 289 289 289 289 290
Wind_Speed
11 10 9 8 6 5 4 3 2 3 4 5 6 7 8 8 9 10 11 12 13 13 13 14 14 14 15 16 17 19 20 22 23 25 27 29 30 31 32 34 34 35
11 10 9 7 6 4 3 3 3 4 4 5 6 6 7 8 8 9 10 11 12 12 13 14 14 15 15 15 15 16 17 19 20 21 23 24 25 27 28 30 31 32
10 9 8 6 5 4 4 4 4 4 4 4 5 6 7 7 8 9 10 10 11 11 11 12 13 14 15 16 16 16 16 16 17 18 20 21 22 24 25 26 28 29
10 8 7 6 5 5 4 4 3 3 3 3 4 5 6 7 7 8 9 9 10 10 11 11 12 13 14 15 15 16 16 16 17 17 18 19 20 21 22 23 24 25
9 8 7 6 5 5 4 3 2 1 1 2 3 4 5 6 7 7 8 9 10 11 11 12 13 13 14 14 15 16 16 17 17 18 19 19 20 21 22 22 23 24
9 8 7 6 5 4 3 2 1 1 1 2 3 4 5 6 7 8 8 9 11 11 12 13 13 14 15 15 16 17 17 18 19 19 20 20 20 21 22 23 24 25
9 8 7 6 5 5 4 3 2 2 2 2 3 4 5 6 7 8 9 10 11 11 12 13 13 14 15 16 17 17 18 19 20 21 21 22 23 23 24 25 26 27
9 8 8 7 6 6 5 4 3 2 2 2 3 4 5 7 7 8 9 10 11 11 12 13 14 15 16 17 18 19 19 20 21 22 23 24 24 25 26 26 28 29
10 9 9 8 7 6 5 4 4 3 3 4 4 5 6 7 7 8 9 10 11 12 13 14 15 17 18 19 20 21 22 22 23 25 25 27 27 28 29 29 31 32
11 10 10 9 8 7 6 5 5 4 4 4 4 5 6 7 8 9 10 11 12 13 15 16 17 19 20 21 22 24 25 25 26 28 28 30 31 32 33 34 35 36
12 11 11 9 8 7 6 5 4 3 3 3 4 5 7 8 9 10 11 12 14 15 16 17 19 21 22 23 24 26 27 28 29 31 31 33 34 35 36 37 38 39
13 12 11 10 8 7 6 5 3 1 2 4 5 7 8 9 10 12 13 14 15 16 17 19 20 22 23 24 26 27 29 30 31 33 34 35 36 37 38 39 40 41
13 12 11 9 8 6 4 2 1 2 4 5 7 8 9 10 12 13 14 15 16 17 19 20 21 23 24 25 27 28 30 31 33 34 35 36 37 38 39 40 42 42
13 12 10 8 6 4 2 1 2 4 5 6 8 9 10 11 13 14 15 16 18 19 20 21 22 23 25 26 28 29 31 33 34 36 37 39 40 40 41 42 44 45
13 11 8 6 4 2 1 2 3 5 6 7 8 10 11 12 14 15 16 17 18 19 20 21 22 23 25 27 29 31 33 35 37 38 40 42 43 44 45 46 47 48
11 9 7 4 2 1 1 3 4 5 7 8 9 11 12 13 15 16 17 18 19 20 21 21 23 24 26 28 30 33 35 38 40 42 43 45 47 49 50 51 51 52
10 7 5 3 1 1 2 4 5 6 8 9 10 12 13 14 16 17 18 20 21 22 23 24 25 26 28 30 32 34 37 40 42 44 46 47 49 51 53 55 55 56
8 6 4 2 1 2 3 5 7 8 9 11 12 13 14 16 17 19 20 22 24 25 27 28 29 30 32 33 35 36 38 41 43 46 48 50 51 53 55 57 58 59
6 5 3 1 2 3 5 7 8 10 11 12 14 15 17 18 19 21 23 24 27 29 30 32 33 34 35 36 38 39 41 43 46 48 50 52 54 55 57 58 60 61
6 4 2 2 3 5 6 8 9 11 13 14 16 17 18 20 22 24 25 27 29 32 34 35 36 36 38 39 41 43 45 47 49 51 53 54 55 56 58 59 60 60
5 3 2 3 4 6 8 9 11 13 14 15 17 19 21 23 24 27 29 30 32 34 37 38 38 39 41 43 44 46 47 49 51 52 53 55 56 57 57 59 59 60
5 3 3 4 5 7 9 10 12 13 15 17 19 21 23 25 27 29 32 33 35 36 38 40 40 41 43 44 46 47 48 50 51 52 53 55 56 57 58 59 59 59
4 3 4 5 6 8 10 11 13 15 17 19 21 23 25 27 30 32 33 35 36 38 39 41 42 43 43 44 45 46 47 49 50 52 53 55 56 58 59 59 60 60
4 4 4 6 7 9 11 13 15 17 19 21 24 26 28 29 31 33 33 35 36 38 39 42 43 43 44 45 46 47 47 48 50 52 54 56 57 59 60 60 60 60
4 4 5 7 8 10 12 14 16 18 20 22 24 27 29 30 32 33 34 35 36 38 39 41 43 45 46 46 47 47 47 48 50 52 54 55 57 59 61 62 62 62
3 4 6 8 9 11 13 15 17 19 21 23 25 27 29 30 32 34 35 36 37 38 40 42 45 47 47 48 47 47 47 48 49 51 53 54 57 60 62 64 64 65
Wind_Direction
183 179 176 174 176 186 198 223 257 288 302 307 312 314 320 327 329 331 332 334 335 333 330 326 321 317 314 311 309 306 304 301 298 295 292 291 290 290 289 288 287 287
163 162 166 173 180 190 209 235 258 275 287 296 306 312 323 331 334 335 338 339 339 338 335 332 329 327 326 324 322 319 315 312 309 304 300 299 298 297 296 296 295 295
161 166 172 180 189 205 225 242 256 272 288 300 313 323 331 339 342 342 343 343 343 343 340 338 337 335 334 334 334 332 329 324 319 315 311 310 309 306 306 304 302 300
169 175 182 190 202 215 227 241 254 274 298 314 330 344 348 350 350 347 346 347 348 349 348 347 344 343 342 340 340 339 338 336 332 328 325 324 324 321 320 317 314 312
177 184 190 196 204 208 217 229 245 275 325 351 1 3 360 357 353 351 351 351 351 351 351 351 347 346 345 342 342 341 340 340 337 335 333 333 332 330 329 326 323 321
182 187 188 191 194 192 195 192 171 111 60 32 16 7 2 1 357 356 357 354 354 353 352 351 348 346 345 343 343 342 340 339 337 336 335 334 333 332 331 327 325 324
181 183 181 182 177 168 164 154 143 119 80 41 20 13 8 8 6 4 2 358 356 354 352 351 348 346 346 344 343 341 339 337 335 334 332 331 330 329 328 326 324 323
177 175 170 168 162 160 161 152 144 123 86 54 35 28 20 17 11 5 2 357 354 352 350 348 346 345 343 341 339 338 336 335 333 332 330 329 329 328 327 326 323 322
170 167 164 164 163 161 157 145 131 106 83 62 44 33 21 13 6 360 357 354 352 349 347 346 345 344 342 340 338 336 336 335 334 333 332 330 329 328 328 326 324 324
166 164 162 162 159 153 144 134 120 100 82 59 39 24 10 3 358 356 355 352 350 348 347 346 345 343 342 340 338 336 335 334 332 331 330 329 328 328 327 326 324 323
164 161 159 158 154 149 142 132 120 102 79 38 16 6 0 359 357 356 354 351 350 348 347 347 344 342 340 338 337 335 333 332 331 330 329 328 327 326 325 324 322 321
163 160 159 159 154 150 145 137 128 84 27 6 2 2 360 359 357 354 352 350 349 348 346 345 343 341 339 337 336 333 332 331 330 328 327 325 324 323 322 321 319 318
164 163 161 160 157 154 149 136 82 14 8 3 1 1 358 354 352 350 348 347 345 344 342 341 340 338 335 334 333 331 329 328 326 324 323 321 320 319 317 316 315 314
165 164 162 161 159 152 134 64 25 10 6 3 359 355 350 348 346 344 343 342 339 338 337 336 335 333 331 330 329 328 326 324 323 321 319 318 316 315 314 313 312 311
166 165 163 160 153 131 75 23 13 5 360 356 351 346 344 342 341 339 338 336 335 333 332 332 332 331 330 329 328 326 324 322 321 320 319 317 315 314 313 312 311 310
167 166 163 158 147 105 26 7 0 355 350 346 342 341 340 339 338 336 334 332 331 331 330 330 331 330 330 329 328 327 325 323 322 321 320 318 317 316 314 314 313 312
169 168 168 165 159 359 353 350 346 342 341 339 338 339 337 336 336 335 334 332 331 331 331 332 333 332 331 331 330 329 328 326 323 322 321 320 319 318 316 316 315 314
173 174 175 183 225 331 333 335 336 335 336 336 336 337 336 336 335 334 334 333 332 332 333 333 335 335 335 334 333 332 331 328 324 323 322 320 319 318 317 316 315 314
178 182 188 220 294 324 329 331 333 332 333 335 335 336 335 335 335 335 334 334 333 333 333 335 336 337 337 336 335 333 331 328 325 323 321 319 319 317 316 315 314 314
186 195 216 278 309 324 329 331 332 332 333 334 334 334 334 334 334 335 335 335 335 334 334 335 337 338 338 336 335 333 330 327 325 323 321 319 319 318 317 316 315 315
199 218 253 298 317 325 330 331 331 331 332 333 334 335 336 336 336 336 336 336 336 335 334 334 337 338 337 335 334 332 329 327 324 323 321 320 319 319 318 316 315 315
218 246 279 309 323 326 329 331 330 331 333 334 336 337 337 337 337 337 337 336 336 336 334 333 335 336 335 333 332 331 329 327 325 323 322 321 320 320 319 317 315 315
235 268 298 316 325 327 329 330 331 333 335 335 336 337 338 338 337 337 337 336 336 336 334 332 333 334 333 333 332 331 330 328 326 325 323 322 321 320 318 316 315 313
250 284 308 318 326 329 330 332 333 335 337 338 338 338 339 338 336 335 336 336 334 333 332 331 331 332 333 333 333 333 332 330 328 326 324 323 321 319 317 315 314 313
266 296 315 322 328 330 331 333 335 337 339 340 339 338 337 337 336 333 332 332 331 330 330 330 330 331 333 334 334 335 334 331 329 326 324 323 321 319 317 316 316 315
278 303 317 323 328 332 334 336 338 339 341 340 338 337 336 334 333 330 329 329 329 330 330 331 332 333 334 335 335 335 333 330 327 326 325 324 322 321 320 319 318 318